RYR7AC EBCI-LERS

Flight info

Callsign RYR7AC
Flight time N/A
Altitude 35000
Route CIV N872 LESDO DCT KOVIN DCT DUCRA UM728 RESMI UN857 DISAK DCT DIRMO DCT VALKU DCT ATSUP DCT MINSO DCT DEGOL DCT PPG DCT ALBER P84 GIR
Aircraft B738/M-SDE2E3FGHIRWXY/LB1

Departure

Time N/A
Airport Brussels South Charleroi Airport (EBCI)

Arrival

Time 2026-04-28 18:32
Airport Reus Airport (LERS)
Time Latitude Longitude Altitude Speed Heading
2026-04-28 17:42 45.97935 2.98657 34999 ft 464 kts 186°
2026-04-28 17:43 45.94721 2.98199 34998 ft 464 kts 186°
2026-04-28 17:43 45.88279 2.97282 35001 ft 464 kts 186°
2026-04-28 17:44 45.81848 2.96369 35001 ft 464 kts 186°
2026-04-28 17:44 45.75405 2.95457 35002 ft 464 kts 186°
2026-04-28 17:45 45.68948 2.94947 35001 ft 464 kts 181°
2026-04-28 17:45 45.62531 2.94868 34998 ft 464 kts 180°
2026-04-28 17:46 45.56067 2.94784 34999 ft 464 kts 181°
2026-04-28 17:46 45.49590 2.94636 34999 ft 464 kts 181°
2026-04-28 17:47 45.43158 2.94462 35005 ft 464 kts 181°
2026-04-28 17:47 45.36692 2.94284 35000 ft 464 kts 181°
2026-04-28 17:48 45.30217 2.94109 35000 ft 464 kts 181°
2026-04-28 17:48 45.23791 2.93937 35009 ft 464 kts 181°
2026-04-28 17:49 45.17324 2.93764 35002 ft 464 kts 181°
2026-04-28 17:49 45.10889 2.93592 35000 ft 464 kts 181°
2026-04-28 17:50 45.04424 2.93420 34998 ft 464 kts 181°
2026-04-28 17:50 44.97945 2.93248 35003 ft 464 kts 181°
2026-04-28 17:51 44.91508 2.93077 34999 ft 464 kts 181°
2026-04-28 17:51 44.85033 2.92906 35000 ft 464 kts 181°
2026-04-28 17:52 44.78613 2.92551 35002 ft 464 kts 183°
2026-04-28 17:52 44.68929 2.91763 35007 ft 464 kts 183°
2026-04-28 17:53 44.62478 2.91267 35003 ft 464 kts 183°
2026-04-28 17:53 44.56020 2.90793 34999 ft 464 kts 183°
2026-04-28 17:54 44.49560 2.90325 35006 ft 464 kts 183°
2026-04-28 17:54 44.43145 2.89861 35000 ft 464 kts 183°
2026-04-28 17:55 44.36691 2.89394 35001 ft 464 kts 183°
2026-04-28 17:55 44.30228 2.88928 35006 ft 464 kts 183°
2026-04-28 17:56 44.23769 2.88462 34999 ft 464 kts 183°
2026-04-28 17:56 44.17351 2.88001 35008 ft 464 kts 183°
2026-04-28 17:57 44.10884 2.87537 34999 ft 464 kts 183°
2026-04-28 17:57 44.04434 2.87076 35007 ft 464 kts 183°
2026-04-28 17:58 43.97971 2.86614 34999 ft 464 kts 183°
2026-04-28 17:58 43.91523 2.86154 35003 ft 464 kts 183°
2026-04-28 17:59 43.85073 2.85695 34998 ft 464 kts 183°
2026-04-28 17:59 43.78629 2.85238 35001 ft 464 kts 183°
2026-04-28 18:00 43.72193 2.85139 34997 ft 464 kts 179°
2026-04-28 18:00 43.65732 2.85308 34998 ft 464 kts 179°
2026-04-28 18:01 43.59265 2.85465 34998 ft 464 kts 179°
2026-04-28 18:01 43.52804 2.85577 34999 ft 464 kts 179°
2026-04-28 18:02 43.46362 2.85671 34999 ft 464 kts 180°
2026-04-28 18:02 43.39898 2.85763 35001 ft 464 kts 179°
2026-04-28 18:03 43.33432 2.85856 35000 ft 464 kts 179°
2026-04-28 18:03 43.26994 2.85950 34997 ft 464 kts 179°
2026-04-28 18:04 43.20531 2.86044 35001 ft 464 kts 179°
2026-04-28 18:04 43.14071 2.86137 35005 ft 464 kts 179°
2026-04-28 18:05 43.08697 2.86215 35005 ft 464 kts 179°
2026-04-28 18:05 43.01136 2.86324 35011 ft 464 kts 179°
2026-04-28 18:06 42.94684 2.86417 35011 ft 464 kts 179°
2026-04-28 18:06 42.88247 2.86510 35007 ft 464 kts 179°
2026-04-28 18:07 42.81791 2.86603 35007 ft 464 kts 179°
2026-04-28 18:07 42.75311 2.86693 35008 ft 464 kts 180°
2026-04-28 18:08 42.68867 2.86176 35003 ft 464 kts 186°
2026-04-28 18:08 42.62470 2.85281 34998 ft 464 kts 186°
2026-04-28 18:09 42.56036 2.84463 34999 ft 464 kts 185°
2026-04-28 18:09 42.49626 2.83715 35002 ft 464 kts 185°
2026-04-28 18:10 42.43194 2.82968 34997 ft 464 kts 185°
2026-04-28 18:10 42.36752 2.82221 34999 ft 464 kts 185°
2026-04-28 18:11 42.30282 2.81473 34516 ft 466 kts 185°
2026-04-28 18:11 42.27064 2.81101 34154 ft 463 kts 185°
2026-04-28 18:11 42.23823 2.80727 33110 ft 469 kts 185°
2026-04-28 18:12 42.20575 2.80353 32283 ft 469 kts 185°
2026-04-28 18:12 42.17334 2.79980 31644 ft 465 kts 185°
2026-04-28 18:12 42.14091 2.79606 30791 ft 467 kts 185°
2026-04-28 18:12 42.10847 2.79233 29902 ft 468 kts 185°
2026-04-28 18:13 42.07627 2.78863 28953 ft 470 kts 185°
2026-04-28 18:13 42.04354 2.78488 27926 ft 471 kts 185°
2026-04-28 18:13 42.01105 2.78104 26853 ft 468 kts 187°
2026-04-28 18:13 41.97954 2.77023 25749 ft 470 kts 206°
2026-04-28 18:14 41.95254 2.74641 25066 ft 463 kts 221°
2026-04-28 18:14 41.93147 2.71434 24559 ft 452 kts 235°
2026-04-28 18:14 41.91644 2.67745 24056 ft 453 kts 249°
2026-04-28 18:14 41.90829 2.63626 23606 ft 460 kts 258°
2026-04-28 18:15 41.90201 2.59397 23096 ft 460 kts 258°
2026-04-28 18:15 41.89589 2.55263 22599 ft 455 kts 258°
2026-04-28 18:15 41.88970 2.51129 22113 ft 450 kts 258°
2026-04-28 18:15 41.88341 2.47020 21640 ft 446 kts 258°
2026-04-28 18:16 41.87708 2.42961 21171 ft 443 kts 258°
2026-04-28 18:16 41.87069 2.38915 20703 ft 440 kts 258°
2026-04-28 18:16 41.86430 2.34905 20211 ft 439 kts 258°
2026-04-28 18:16 41.85768 2.30903 19677 ft 436 kts 255°
2026-04-28 18:17 41.84682 2.27132 19107 ft 432 kts 242°
2026-04-28 18:17 41.83125 2.23768 18547 ft 428 kts 234°
2026-04-28 18:17 41.81207 2.20743 17973 ft 424 kts 225°
2026-04-28 18:17 41.79143 2.17942 17417 ft 421 kts 226°
2026-04-28 18:18 41.77112 2.15111 16832 ft 418 kts 226°
2026-04-28 18:18 41.75115 2.12286 16258 ft 416 kts 226°
2026-04-28 18:18 41.73159 2.09502 15681 ft 412 kts 227°
2026-04-28 18:18 41.71836 2.07619 15251 ft 409 kts 227°
2026-04-28 18:19 41.69301 2.04015 14591 ft 395 kts 226°
2026-04-28 18:19 41.67434 2.01366 14120 ft 386 kts 226°
2026-04-28 18:19 41.65616 1.98790 13681 ft 373 kts 226°
2026-04-28 18:19 41.63864 1.96311 13232 ft 362 kts 226°
2026-04-28 18:20 41.62137 1.93872 12816 ft 360 kts 226°
2026-04-28 18:20 41.60417 1.91444 12397 ft 358 kts 226°
2026-04-28 18:20 41.58707 1.89034 12009 ft 356 kts 226°
2026-04-28 18:20 41.57008 1.86638 11598 ft 352 kts 226°
2026-04-28 18:21 41.55356 1.84312 11191 ft 346 kts 226°
2026-04-28 18:21 41.53707 1.81993 10790 ft 340 kts 226°
2026-04-28 18:21 41.52099 1.79733 10386 ft 328 kts 226°
2026-04-28 18:21 41.50555 1.77563 10006 ft 314 kts 226°
2026-04-28 18:22 41.49097 1.75517 9643 ft 302 kts 226°
2026-04-28 18:22 41.47671 1.73517 9296 ft 291 kts 226°
2026-04-28 18:22 41.46297 1.71591 8968 ft 283 kts 226°
2026-04-28 18:22 41.44952 1.69705 8641 ft 278 kts 226°
2026-04-28 18:23 41.43631 1.67857 8316 ft 272 kts 226°
2026-04-28 18:23 41.42331 1.66038 8011 ft 271 kts 226°
2026-04-28 18:23 41.41032 1.64220 7701 ft 270 kts 226°
2026-04-28 18:23 41.39741 1.62414 7382 ft 269 kts 226°
2026-04-28 18:24 41.38462 1.60628 7070 ft 269 kts 226°
2026-04-28 18:24 41.38026 1.60019 6796 ft 269 kts 226°
2026-04-28 18:24 41.36323 1.57644 6473 ft 265 kts 226°
2026-04-28 18:24 41.34649 1.55313 6080 ft 259 kts 225°
2026-04-28 18:25 41.33729 1.54271 5865 ft 253 kts 210°
2026-04-28 18:25 41.32173 1.53342 5657 ft 244 kts 201°
2026-04-28 18:25 41.30648 1.52443 5401 ft 236 kts 204°
2026-04-28 18:26 41.28043 1.50801 4997 ft 215 kts 204°
2026-04-28 18:26 41.26727 1.49965 4784 ft 206 kts 204°
2026-04-28 18:26 41.25451 1.49155 4573 ft 201 kts 204°
2026-04-28 18:26 41.24243 1.48259 4369 ft 198 kts 220°
2026-04-28 18:27 41.23480 1.46784 4200 ft 191 kts 242°
2026-04-28 18:27 41.22965 1.45156 3996 ft 190 kts 247°
2026-04-28 18:27 41.22516 1.43521 3929 ft 184 kts 248°
2026-04-28 18:27 41.22073 1.41937 3736 ft 182 kts 248°
2026-04-28 18:28 41.21634 1.40406 3534 ft 179 kts 247°
2026-04-28 18:28 41.21184 1.38864 3312 ft 178 kts 247°
2026-04-28 18:28 41.20739 1.37338 3080 ft 177 kts 247°
2026-04-28 18:28 41.20297 1.35823 2837 ft 175 kts 246°
2026-04-28 18:29 41.19859 1.34323 2597 ft 173 kts 247°
2026-04-28 18:29 41.19430 1.32848 2384 ft 171 kts 247°
2026-04-28 18:29 41.19006 1.31396 2165 ft 164 kts 247°
2026-04-28 18:29 41.18604 1.30014 1960 ft 159 kts 248°
2026-04-28 18:30 41.18206 1.28648 1735 ft 157 kts 248°
2026-04-28 18:30 41.17977 1.27861 1609 ft 155 kts 248°
2026-04-28 18:30 41.17459 1.26081 1362 ft 148 kts 248°
2026-04-28 18:30 41.17101 1.24848 1145 ft 140 kts 248°
2026-04-28 18:31 41.16749 1.23641 1001 ft 141 kts 248°
2026-04-28 18:31 41.16390 1.22403 856 ft 146 kts 248°
2026-04-28 18:31 41.16026 1.21148 696 ft 145 kts 247°
2026-04-28 18:31 41.15665 1.19906 518 ft 144 kts 248°
2026-04-28 18:32 41.15304 1.18672 351 ft 144 kts 248°
2026-04-28 18:32 41.14966 1.17499 240 ft 118 kts 250°
2026-04-28 18:32 41.14745 1.16737 240 ft 72 kts 248°
2026-04-28 18:32 41.14611 1.16275 240 ft 44 kts 249°
2026-04-28 18:33 41.14525 1.15974 240 ft 26 kts 265°
2026-04-28 18:33 41.14604 1.15883 240 ft 15 kts 342°
2026-04-28 18:33 41.14651 1.15807 240 ft 6 kts 255°
2026-04-28 18:33 41.14635 1.15752 240 ft 6 kts 246°
2026-04-28 18:34 41.14618 1.15698 240 ft 6 kts 248°
2026-04-28 18:34 41.14603 1.15644 240 ft 6 kts 250°
2026-04-28 18:34 41.14588 1.15592 240 ft 6 kts 249°
2026-04-28 18:34 41.14587 1.15540 240 ft 5 kts 302°
2026-04-28 18:35 41.14619 1.15516 240 ft 5 kts 337°
2026-04-28 18:35 41.14649 1.15500 240 ft 0 kts 340°